User: anonymous   Login
Location: Theydon Bois
(51.6750°N, 0.1050°E)
Time: 22:11:52
(UTC+00:00)
Language:

ARGOS - Orbit

View from above orbital plane
View from above orbital plane
View from above satellite
View from above satellite

Ground track
Ground track

The orbit data is extracted from the following two-line orbital elements,

1 25634U 99008A   18049.15757311 -.00000014  00000-0  13583-4 0  9998
2 25634  98.5850 109.9028 0009641 213.0000 147.0575 14.19327789983350
Epoch (UTC): 18 February 2018 03:46:54
Eccentricity: 0.0009641
inclination: 98.5850°
perigee height: 820 km
apogee height: 834 km
right ascension of ascending node: 109.9028°
argument of perigee: 213.0000°
revolutions per day: 14.19327789
mean anomaly at epoch: 147.0575°
orbit number at epoch: 98335

The dashed part of the orbit path shows where the satellite is in the earth's shadow,  

DLR